Hourly Weather Lugi Apushkiny

Today, 17 May, Monday

Time Temperature Precipitation Wind Pressure Humidity
00:00 +17°C° 0 mm 3 mps 746 mmHg 76%
01:00 +17°C° 0.2 mm 3 mps 746 mmHg 81%
02:00 +17°C° 0.2 mm 4 mps 746 mmHg 86%
03:00 +15°C° 0.2 mm 4 mps 746 mmHg 92%
04:00 +15°C° 0 mm 4 mps 745 mmHg 91%
05:00 +17°C° 0 mm 4 mps 745 mmHg 90%
06:00 +17°C° 0 mm 4 mps 745 mmHg 89%
07:00 +19°C° 0 mm 4 mps 745 mmHg 81%
08:00 +20°C° 0 mm 5 mps 745 mmHg 73%
09:00 +22°C° 0 mm 5 mps 745 mmHg 65%
10:00 +24°C° 0 mm 6 mps 745 mmHg 60%
11:00 +26°C° 0 mm 6 mps 745 mmHg 56%
12:00 +27°C° 0 mm 7 mps 745 mmHg 51%
13:00 +27°C° 0 mm 7 mps 745 mmHg 51%
14:00 +28°C° 0 mm 7 mps 744 mmHg 51%
15:00 +28°C° 0 mm 8 mps 744 mmHg 51%
16:00 +27°C° 0 mm 7 mps 744 mmHg 54%
17:00 +26°C° 0 mm 6 mps 744 mmHg 58%
18:00 +24°C° 0 mm 6 mps 744 mmHg 61%
19:00 +23°C° 0 mm 5 mps 744 mmHg 65%
20:00 +21°C° 0 mm 5 mps 744 mmHg 69%
21:00 +20°C° 0 mm 5 mps 744 mmHg 73%
22:00 +19°C° 0 mm 4 mps 744 mmHg 76%
23:00 +18°C° 0 mm 4 mps 744 mmHg 79%

Tomorrow, 18 May, Tuesday

Time Temperature Precipitation Wind Pressure Humidity
00:00 +18°C° 0 mm 3 mps 744 mmHg 82%
01:00 +17°C° 0.1 mm 3 mps 744 mmHg 82%
02:00 +17°C° 0.1 mm 3 mps 744 mmHg 84%
03:00 +16°C° 0.1 mm 3 mps 744 mmHg 86%
04:00 +17°C° 0.1 mm 3 mps 744 mmHg 86%
05:00 +17°C° 0.1 mm 3 mps 744 mmHg 86%
06:00 +17°C° 0.1 mm 3 mps 744 mmHg 87%
07:00 +18°C° 0.1 mm 3 mps 744 mmHg 81%
08:00 +20°C° 0.1 mm 4 mps 744 mmHg 75%
09:00 +22°C° 0.1 mm 4 mps 744 mmHg 70%
10:00 +23°C° 0 mm 5 mps 744 mmHg 64%
11:00 +25°C° 0 mm 5 mps 744 mmHg 59%
12:00 +26°C° 0 mm 5 mps 744 mmHg 54%
13:00 +26°C° 0 mm 5 mps 743 mmHg 54%
14:00 +26°C° 0 mm 5 mps 743 mmHg 54%
15:00 +26°C° 0 mm 4 mps 743 mmHg 55%
16:00 +26°C° 0 mm 4 mps 743 mmHg 59%
17:00 +25°C° 0 mm 4 mps 743 mmHg 62%
18:00 +23°C° 0 mm 4 mps 743 mmHg 66%
19:00 +22°C° 0 mm 3 mps 743 mmHg 71%
20:00 +21°C° 0 mm 3 mps 743 mmHg 76%
21:00 +19°C° 0 mm 2 mps 743 mmHg 81%
22:00 +18°C° 0.1 mm 2 mps 743 mmHg 84%
23:00 +18°C° 0.1 mm 2 mps 743 mmHg 88%

Day after tomorrow, 19 May, Wednesday

Time Temperature Precipitation Wind Pressure Humidity
00:00 +17°C° 0.1 mm 2 mps 743 mmHg 91%
01:00 +17°C° 0 mm 2 mps 743 mmHg 91%
02:00 +17°C° 0 mm 2 mps 743 mmHg 91%
03:00 +16°C° 0 mm 2 mps 743 mmHg 91%
04:00 +17°C° 0 mm 2 mps 743 mmHg 91%
05:00 +17°C° 0 mm 3 mps 743 mmHg 91%
06:00 +17°C° 0 mm 3 mps 743 mmHg 91%
07:00 +17°C° 0 mm 4 mps 743 mmHg 87%
08:00 +18°C° 0 mm 4 mps 743 mmHg 83%
09:00 +18°C° 0 mm 4 mps 743 mmHg 79%
10:00 +19°C° 0.1 mm 5 mps 743 mmHg 75%
11:00 +20°C° 0.1 mm 5 mps 743 mmHg 72%
12:00 +20°C° 0.1 mm 5 mps 743 mmHg 69%
13:00 +20°C° 0.3 mm 5 mps 743 mmHg 69%
14:00 +20°C° 0.3 mm 4 mps 743 mmHg 69%
15:00 +20°C° 0.3 mm 4 mps 743 mmHg 70%
16:00 +20°C° 0.8 mm 4 mps 743 mmHg 74%
17:00 +19°C° 0.8 mm 4 mps 743 mmHg 78%
18:00 +18°C° 0.8 mm 4 mps 743 mmHg 82%
19:00 +17°C° 0.2 mm 3 mps 743 mmHg 84%
20:00 +16°C° 0.2 mm 3 mps 743 mmHg 87%
21:00 +16°C° 0.2 mm 2 mps 743 mmHg 90%
22:00 +15°C° 0 mm 2 mps 743 mmHg 91%
23:00 +14°C° 0 mm 2 mps 743 mmHg 92%

20 May, Thursday

Time Temperature Precipitation Wind Pressure Humidity
00:00 +14°C° 0 mm 2 mps 743 mmHg 93%
01:00 +13°C° 0 mm 2 mps 743 mmHg 93%
02:00 +12°C° 0 mm 3 mps 743 mmHg 94%
03:00 +12°C° 0 mm 3 mps 743 mmHg 94%
04:00 +12°C° 0 mm 3 mps 743 mmHg 94%
05:00 +12°C° 0 mm 3 mps 743 mmHg 94%
06:00 +12°C° 0 mm 3 mps 743 mmHg 94%
07:00 +12°C° 0 mm 3 mps 743 mmHg 93%
08:00 +13°C° 0 mm 4 mps 743 mmHg 92%
09:00 +13°C° 0 mm 4 mps 743 mmHg 91%
10:00 +14°C° 0.2 mm 5 mps 744 mmHg 88%
11:00 +14°C° 0.2 mm 5 mps 744 mmHg 86%
12:00 +15°C° 0.2 mm 6 mps 745 mmHg 84%
13:00 +16°C° 0.1 mm 6 mps 745 mmHg 80%
14:00 +16°C° 0.1 mm 6 mps 745 mmHg 75%
15:00 +17°C° 0.1 mm 6 mps 745 mmHg 70%
16:00 +17°C° 0.1 mm 6 mps 746 mmHg 73%
17:00 +16°C° 0.1 mm 6 mps 746 mmHg 76%
18:00 +16°C° 0.1 mm 6 mps 747 mmHg 79%
19:00 +15°C° 0 mm 5 mps 747 mmHg 83%
20:00 +13°C° 0 mm 4 mps 747 mmHg 87%
21:00 +12°C° 0 mm 3 mps 748 mmHg 91%
22:00 +12°C° 0 mm 3 mps 748 mmHg 92%
23:00 +12°C° 0 mm 3 mps 749 mmHg 93%

21 May, Friday

Time Temperature Precipitation Wind Pressure Humidity
00:00 +11°C° 0 mm 3 mps 749 mmHg 94%
01:00 +13°C° 0 mm 2 mps 749 mmHg 93%
02:00 +13°C° 0 mm 2 mps 749 mmHg 92%
03:00 +13°C° 0 mm 2 mps 750 mmHg 91%
04:00 +13°C° 0 mm 2 mps 750 mmHg 91%
05:00 +13°C° 0 mm 2 mps 750 mmHg 91%
06:00 +14°C° 0 mm 2 mps 750 mmHg 91%
07:00 +15°C° 0 mm 2 mps 751 mmHg 87%
08:00 +16°C° 0 mm 3 mps 751 mmHg 83%
09:00 +17°C° 0 mm 3 mps 751 mmHg 79%
10:00 +18°C° 0.2 mm 3 mps 751 mmHg 75%
11:00 +19°C° 0.2 mm 3 mps 751 mmHg 71%
12:00 +21°C° 0.2 mm 4 mps 751 mmHg 67%
13:00 +21°C° 0.1 mm 4 mps 751 mmHg 63%
14:00 +22°C° 0.1 mm 4 mps 751 mmHg 60%
15:00 +23°C° 0.1 mm 4 mps 751 mmHg 56%
16:00 +22°C° 0.2 mm 4 mps 751 mmHg 61%
17:00 +22°C° 0.2 mm 3 mps 750 mmHg 66%
18:00 +21°C° 0.2 mm 3 mps 750 mmHg 71%
19:00 +20°C° 0.1 mm 3 mps 750 mmHg 76%
20:00 +18°C° 0.1 mm 3 mps 750 mmHg 80%
21:00 +17°C° 0.1 mm 3 mps 750 mmHg 85%
22:00 +17°C° 0 mm 4 mps 750 mmHg 84%
23:00 +17°C° 0 mm 4 mps 750 mmHg 83%

22 May, Saturday

Time Temperature Precipitation Wind Pressure Humidity
00:00 +16°C° 0 mm 5 mps 750 mmHg 83%
01:00 +16°C° 0 mm 5 mps 749 mmHg 82%
02:00 +16°C° 0 mm 6 mps 749 mmHg 80%
03:00 +16°C° 0 mm 6 mps 749 mmHg 79%
04:00 +16°C° 0 mm 5 mps 749 mmHg 82%
05:00 +17°C° 0 mm 4 mps 750 mmHg 85%
06:00 +17°C° 0 mm 4 mps 751 mmHg 88%
07:00 +17°C° 0 mm 3 mps 751 mmHg 85%
08:00 +18°C° 0 mm 2 mps 751 mmHg 83%
09:00 +20°C° 0 mm 1 mps 751 mmHg 80%
10:00 +20°C° 0 mm 2 mps 751 mmHg 76%
11:00 +21°C° 0 mm 2 mps 752 mmHg 73%
12:00 +23°C° 0 mm 2 mps 752 mmHg 69%
13:00 +22°C° 0 mm 3 mps 752 mmHg 70%
14:00 +21°C° 0 mm 3 mps 752 mmHg 71%
15:00 +21°C° 0 mm 3 mps 752 mmHg 72%
16:00 +21°C° 0 mm 4 mps 752 mmHg 74%
17:00 +21°C° 0 mm 4 mps 752 mmHg 76%
18:00 +21°C° 0 mm 4 mps 752 mmHg 78%
19:00 +20°C° 0 mm 4 mps 753 mmHg 80%
20:00 +19°C° 0 mm 4 mps 753 mmHg 82%
21:00 +18°C° 0 mm 4 mps 753 mmHg 84%
22:00 +18°C° 0 mm 4 mps 753 mmHg 86%
23:00 +17°C° 0 mm 4 mps 753 mmHg 88%
Show more

We Need Your Consent

Meteoprog and our Service Providers may store and access personal data such as cookies, device identifiers or other similar technologies on your device and process such data to personalise content and ads, as well as provide social media features and to analyse the traffic.

  • Store and/or access information on your device

    Cookies, device identifiers or other information can be stored or accessed on your device for the purposes indicated above.

  • Personalised ads and content, ad and content measurement, audience insights, and products development

    Ads and content can be personalised based on a profile. More data can be added to better personalise ads and content. Ad and content performance can be measured. Insights about the audience who saw the ads and content can be derived. Such data can be used to develop or improve user’s experience, systems and software.

By clicking ‘I Agree’ you will allow the use of indicated cookies, device identifiers, web beacons or other similar technologies. Your settings can be changed in the browser on your device.

For certain purposes, legitimate interests may be relied on, rather than consent. You can read more about this in our Privacy and Cookie Policy.